SL-11 R/B

Satellite information

Favourite Embed

Satellite Type and Status

ROCKET BODYIN ORBIT

Key statistics

Satellite SL-11 R/B at a glance.

Uptime

19982

Days in orbit

Revolutions

≈ 13.0

Per day

Orbit

MEO

Medium Earth Orbit

Inclination

62.9

Latest

Satellite identification and parameters

Extended collection of information and parameters for SL-11 R/B.

Object identification

Identified? True

Debris? False

Object name: SL-11 R/B

International designator: 1970-089B

Object number (NORAD): 4597

Object ID (CCSDS): 4597

Country: COMMONWEALTH OF INDEPENDENT STATES (CIS)

Current information (Y/N): Y

RCS size: LARGE

Orbital parameters

Period: 111.157 minutes

Inclination: 62.9407 deg

SMA: 7658.027 km

Apoapsis: 2027.969 km

Periapsis: 531.816 km

RAAN: 37.7489 deg

Eccentricy: 0.0976853

Argument of periapsis: 30.9833 deg

Mean anomaly: 334.5207 deg

Mean motion: 12.95470133 rev/day

Mean motion (dot): 0.00000057 rev/day2

B* drag term: 0.000058364 1/REarth

Two-line elements (TLE)

Creation date: July 6, 2025, 6:05 p.m.

Reference frame: TEME

Reference center: EARTH

Epoch: July 6, 2025, 12:56 a.m. UTC

TLE line 0: 0 SL-11 R/B

TLE line 1: 1 04597U 70089B 25187.03952406 .00000057 00000-0 58364-4 0 9993

TLE line 2: 2 04597 62.9407 37.7489 0976853 30.9833 334.5207 12.95470133714839

Live tracking on map

Real-time ground track for satellite SL-11 R/B.

In-orbit conjunctions

A list of the most updated potential collisions computed for object SL-11 R/B.

Target Orbit TCA Probability of collision Miss distance Type
COSMOS 886 DEB LEO 2024-11-14 11:02:58 0.001850411 263.0 (m) DEBRIS
FENGYUN 1C DEB SSO 2024-07-16 14:25:22 0.000145493 564.0 (m) DEBRIS

Associated space launch

The I2P satellites were the first soviet coorbital ASAT system.

SL-11 R/B was lifted into orbit during the mission ‘Tsiklon-2 | I2P 4’, on board a Tsiklon-2 space rocket.

The launch took place on Oct. 23, 1970, 4:42 a.m. from 90/20.

For more information about the launch, click the button.

Launch to space Tsiklon-2 | I2P 4
Tsiklon-2 | I2P 4

Agency: N/A

Status: Launch Successful

Launch date: Oct. 23, 1970, 4:42 a.m. UTC

Rocket: Tsiklon-2

Launch pad: 90/20

Location: Baikonur Cosmodrome, Republic of Kazakhstan

...

Latest news about this satellite

There are no fresh news available about this satellite. Check back as we update our databases every day.


Newsletter sign-up

Weekly statistics, charts and insights to help you stay on top of the space industry.